Regional Weather Roundup
Issued by NWS

Home | Current Version | Previous Version | Text Only | Print | Product List | Glossary Off
Versions: 1 2 3 4 5 6 7 8 9 10 11 12 13 14 15 16 17 18 19 20 21 22 23 24 25 26 27 28 29 30 31 32 33 34 35 36 37 38 39 40 41 42 43 44 45 46 47 48 49 50

000
ASUS43 KLSX 281359
RWRMO

WEATHER SUMMARY FOR MISSOURI
NATIONAL WEATHER SERVICE SPRINGFIELD MO
800 AM CST SUN DEC 28 2014

NOTE: "FAIR" INDICATES FEW OR NO CLOUDS BELOW 12,000 FEET WITH NO
       SIGNIFICANT WEATHER AND/OR OBSTRUCTIONS TO VISIBILITY.
       CURRENT SKY AND/OR WEATHER CONDITIONS ARE NOT AVAILABLE FOR
       CHILLICOTHE AND FARMINGTON.

MOZ001>031-035>038-043-044-053-054-281500-
...NORTHERN AND WESTERN MISSOURI...

CITY           SKY/WX    TMP DP  RH WIND       PRES   REMARKS
KANSAS CTY INT PTCLDY    17  15  92 S7        30.21R WCI   8
KANSAS C DTWN  CLEAR     21  17  84 SW3       30.24R
LEE`S SUMMIT   PTCLDY    19  16  88 SW3       30.23R
ST JOSEPH      CLEAR     15  12  88 S7        30.22R WCI   5
CHILLICOTHE      N/A     17  13  84 SE3       30.24S
KIRKSVILLE     PTCLDY    18  17  96 SW5       30.22R WCI  11

$$
MOZ066>068-077>081-088>096-101>105-281500-
...SOUTHWEST MISSOURI...

CITY           SKY/WX    TMP DP  RH WIND       PRES   REMARKS
SPRINGFIELD    CLOUDY    26  22  84 CALM      30.23R
JOPLIN         CLOUDY    22  20  92 CALM      30.26R

$$
MOZ032>034-039>042-045>050-055>058-069>072-281500-
...CENTRAL MISSOURI...

CITY           SKY/WX    TMP DP  RH WIND       PRES   REMARKS
COLUMBIA       CLOUDY    26  22  84 CALM      30.24R
JEFFERSON CITY CLOUDY    28  22  78 CALM      30.27R
ROLLA          CLOUDY    27  22  81 MISG      30.21R
SEDALIA        FAIR      23  20  88 SW3       30.25R
OSAGE BEACH    CLOUDY    25  21  86 CALM      30.24S

$$
MOZ051-052-059>065-281500-
...EAST CENTRAL MISSOURI...

CITY           SKY/WX    TMP DP  RH WIND       PRES   REMARKS
ST LOUIS INTL  CLOUDY    32  24  72 W3        30.25R
SPIRIT OF STL  CLOUDY    31  24  75 VRB3      30.25R
ST CHARLES     CLOUDY    31  24  75 N6        30.25R WCI  25

$$
MOZ072>076-082>087-097>100-106>115-281500-
...SOUTH CENTRAL AND SOUTHEAST MISSOURI...

CITY           SKY/WX    TMP DP  RH WIND       PRES   REMARKS
CAPE GIRARDEAU CLOUDY    34  29  82 N9        30.24R WCI  27
FARMINGTON     CLOUDY    30  27  86 SE6       30.23R WCI  24
POPLAR BLUFF   CLOUDY    34  28  79 N7        30.23S WCI  28
WEST PLAINS    CLOUDY    28  23  81 NW5       30.21S WCI  23

$$



USA.gov is the U.S. government's official web portal to all federal, state and local government web resources and services.